EW3221 Lothian MD US current weather conditions

sailwx.info

Wind from 025

Air temperature 28.9° C
Dewpoint 25.1° C

Last reported at 2020-Aug-14 17:00 UTC.
Time now 2020-Aug-14 17:21 UTC

Location: N 38°46' W 076°40'.
View on Google Maps.

See reports from other nearby stations

  
Tides and Currents Weather Stations Pressure Air Temp Water Temp Dewpoint Dewpoint Depression Visibility Wind Speed Wind Dir Waves Ship Positions
date/time (UTC)wind fromknots sea level pressurealtimeterstation pressurevisibilityair tempwater tempwave heightnotes
2020-Aug-14 17:00 025 28.9
2020-Aug-14 16:47 360 27.8
2020-Aug-14 16:31 330 1 gusting 6 27.8
2020-Aug-14 16:16 308 0 gusting 7 28.3
2020-Aug-14 16:01 327 0 gusting 7 27.8
2020-Aug-14 15:47 019 27.8
2020-Aug-14 15:31 009 27.2
2020-Aug-14 15:16 017 2 gusting 7 26.7
2020-Aug-14 15:01 005 25.6
2020-Aug-14 14:47 040 25.6
2020-Aug-14 14:30 323 0 gusting 6 25.0
2020-Aug-14 14:16 074 2 gusting 9 24.4
2020-Aug-14 14:01 038 0 gusting 6 24.4
2020-Aug-14 13:45 355 1 gusting 8 24.4
2020-Aug-14 13:30 333 24.4
2020-Aug-14 13:16 005 23.9
2020-Aug-14 13:00 343 0 gusting 6 23.9
2020-Aug-14 12:45 360 23.9
2020-Aug-14 12:30 341 0 gusting 6 23.3
2020-Aug-14 12:16 355 23.3
2020-Aug-14 12:01 043 0 gusting 9 23.3
2020-Aug-14 11:45 329 0 gusting 9 23.3
2020-Aug-14 11:30 017 23.3
2020-Aug-14 11:15 338 23.3
2020-Aug-14 11:00 360 23.3
2020-Aug-14 10:46 336 23.3
2020-Aug-14 10:30 340 23.3
2020-Aug-14 10:15 355 23.3
2020-Aug-14 10:00 312 23.3
2020-Aug-14 09:45 324 23.3
2020-Aug-14 09:30 347 23.3
2020-Aug-14 09:15 340 23.3
2020-Aug-14 09:00 346 23.3
2020-Aug-14 08:45 355 23.3
2020-Aug-14 08:30 344 23.3
2020-Aug-14 08:15 355 23.9
2020-Aug-14 08:00 015 23.9
2020-Aug-14 07:45 342 23.3
2020-Aug-14 07:30 355 23.3
2020-Aug-14 07:15 337 23.3
2020-Aug-14 07:00 316 23.3
2020-Aug-14 06:47 333 23.3
2020-Aug-14 06:31 326 23.3
2020-Aug-14 06:16 355 23.3
2020-Aug-14 06:02 340 23.3
2020-Aug-14 05:46 355 23.3
2020-Aug-14 05:31 009 23.3
2020-Aug-14 05:16 325 23.3
2020-Aug-14 05:01 032 23.3
2020-Aug-14 04:46 029 22.8
2020-Aug-14 04:31 029 22.8
2020-Aug-14 04:16 032 23.3
2020-Aug-14 04:01 018 23.3
2020-Aug-14 03:46 044 23.3
2020-Aug-14 03:31 022 23.3
2020-Aug-14 03:16 028 23.3
2020-Aug-14 03:01 044 23.9
2020-Aug-14 02:46 017 23.9
2020-Aug-14 02:31 026 23.9
2020-Aug-14 02:15 019 23.9
2020-Aug-14 02:01 009 23.9
2020-Aug-14 01:46 047 24.4
2020-Aug-14 01:32 024 24.4
2020-Aug-14 01:16 024 24.4
2020-Aug-14 01:00 013 24.4
2020-Aug-14 00:46 030 24.4
2020-Aug-14 00:15 033 25.0
2020-Aug-14 00:00 033 25.0
2020-Aug-13 23:01 355 26.1
2020-Aug-13 22:46 041 26.1
2020-Aug-13 22:30 042 26.1
2020-Aug-13 22:15 039 2 gusting 6 26.7
2020-Aug-13 22:01 127 27.2
2020-Aug-13 21:45 079 27.2
2020-Aug-13 21:31 037 0 gusting 5 26.7
2020-Aug-13 21:15 035 26.7
2020-Aug-13 21:01 093 26.7
2020-Aug-13 20:46 034 26.7
2020-Aug-13 20:30 355 0 gusting 6 26.7
2020-Aug-13 20:15 034 26.7
2020-Aug-13 20:00 088 26.7
2020-Aug-13 19:45 005 26.7
2020-Aug-13 19:30 086 26.7
2020-Aug-13 19:15 090 0 gusting 7 26.7
2020-Aug-13 19:00 098 26.7
2020-Aug-13 18:45 034 26.1
2020-Aug-13 18:30 022 26.1
2020-Aug-13 18:15 023 26.1
2020-Aug-13 18:00 355 26.1
2020-Aug-13 17:45 360 0 gusting 6 26.1
2020-Aug-13 17:30 005 0 gusting 6 26.1
2020-Aug-13 17:15 334 25.6
2020-Aug-13 17:00 020 25.6
2020-Aug-13 16:46 017 25.0
2020-Aug-13 16:31 360 24.4
2020-Aug-13 16:17 355 23.9
2020-Aug-13 16:02 360 23.9
2020-Aug-13 15:46 009 22.8
2020-Aug-13 15:32 145 22.2
2020-Aug-13 15:16 145 21.7
2020-Aug-13 15:01 145 21.7
2020-Aug-13 14:46 145 21.7
2020-Aug-13 14:31 145 21.7
2020-Aug-13 14:16 145 21.7
2020-Aug-13 14:02 269 22.2
2020-Aug-13 13:46 288 23.3
2020-Aug-13 13:31 173 23.3
2020-Aug-13 13:15 318 23.3
2020-Aug-13 13:00 067 1 gusting 7 23.3
2020-Aug-13 12:46 058 23.9
2020-Aug-13 12:30 073 24.4
2020-Aug-13 12:15 046 24.4
2020-Aug-13 12:00 341 23.9
2020-Aug-13 11:46 042 23.9
2020-Aug-13 11:30 034 23.3
2020-Aug-13 11:15 355 23.3
2020-Aug-13 11:00 355 22.8
2020-Aug-13 10:45 355 22.8
2020-Aug-13 10:30 355 22.8
2020-Aug-13 10:15 355 22.8
2020-Aug-13 10:00 355 22.2
2020-Aug-13 09:45 355 22.2
2020-Aug-13 09:31 355 22.2
2020-Aug-13 09:17 355 22.2
2020-Aug-13 09:02 355 22.2
2020-Aug-13 08:46 355 22.2
2020-Aug-13 08:31 355 22.2
2020-Aug-13 08:17 355 22.2
2020-Aug-13 08:02 355 22.2
2020-Aug-13 07:47 355 22.2
2020-Aug-13 07:31 355 22.2
2020-Aug-13 07:16 355 22.2
2020-Aug-13 07:03 355 22.2
2020-Aug-13 06:46 355 22.2
2020-Aug-13 06:31 355 22.2
2020-Aug-13 06:16 355 22.2
2020-Aug-13 06:01 355 22.2
2020-Aug-13 05:46 355 22.2
2020-Aug-13 05:31 355 22.2
2020-Aug-13 05:16 355 22.2
2020-Aug-13 05:00 355 22.2
2020-Aug-13 04:47 355 22.8
2020-Aug-13 04:31 071 22.8
2020-Aug-13 04:16 071 22.8
2020-Aug-13 04:01 071 22.8
2020-Aug-13 03:45 071 22.8
2020-Aug-13 03:31 071 22.8
2020-Aug-13 03:16 071 22.8
2020-Aug-13 03:01 332 22.8
2020-Aug-13 02:46 329 22.8
2020-Aug-13 02:30 329 23.3
2020-Aug-13 02:16 329 23.3
2020-Aug-13 02:00 329 23.3
2020-Aug-13 01:46 329 23.3
2020-Aug-13 01:31 329 23.3
2020-Aug-13 01:15 328 23.9
2020-Aug-13 01:00 328 23.9
2020-Aug-13 00:46 328 23.9
2020-Aug-13 00:30 328 24.4
2020-Aug-13 00:15 328 24.4
2020-Aug-13 00:00 328 25.0
2020-Aug-12 23:45 304 25.0
2020-Aug-12 23:30 340 25.6
2020-Aug-12 23:15 061 25.6
2020-Aug-12 23:00 079 25.6
2020-Aug-12 22:46 083 25.6
2020-Aug-12 22:30 080 25.6
2020-Aug-12 22:15 049 25.6
2020-Aug-12 22:00 022 6 gusting 13 26.1
2020-Aug-12 21:45 049 26.1
2020-Aug-12 21:30 307 25.6
2020-Aug-12 21:15 296 25.6
2020-Aug-12 21:00 005 25.6
2020-Aug-12 20:45 071 25.6
2020-Aug-12 20:30 202 26.1
2020-Aug-12 20:17 171 1 gusting 8 27.2
2020-Aug-12 20:01 190 0 gusting 12 28.3
2020-Aug-12 19:46 212 3 gusting 10 30.6
2020-Aug-12 19:31 178 0 gusting 13 33.3
2020-Aug-12 19:16 174 33.9
2020-Aug-12 19:02 238 33.9
2020-Aug-12 18:47 123 33.9
2020-Aug-12 18:32 219 33.9
2020-Aug-12 18:17 209 33.3
2020-Aug-12 18:01 195 33.3
2020-Aug-12 17:46 195 32.8
2020-Aug-12 17:31 214 32.8
2020-Aug-12 17:16 107 32.2
2020-Aug-12 17:01 217 31.1